Zurück zum Katalog

STARLINK-3927

AktivKommunikationVLEO
NORAD 52569·PAYLOAD·🇺🇸 United States

Gestartet May 13, 2022 von Vandenberg Space Force Base

Loading…

Nächste Überflüge (nächste 24 Stunden)

TLE

AktuellSource: CelesTrak SupGP

Epoche: Sep 15, 2026, 01:56 UTC

1 52569C 22051AN  26258.08104167  .00040192  00000+0  12926-2 0  2582
2 52569  53.1590 335.5103 0001231  78.7101   7.1454 15.31679409    10

Verfolge STARLINK-3927 in Echtzeit mit AllMySat

Download on the App Store